Date,TemperatureHighF,TemperatureAvgF,TemperatureLowF,DewpointHighF,DewpointAvgF,DewpointLowF,HumidityHigh,HumidityAvg,HumidityLow,PressureMaxIn,PressureMinIn,WindSpeedMaxMPH,WindSpeedAvgMPH,GustSpeedMaxMPH,PrecipitationSumIn
2013-1-1,15.7,11.8,8.6,10.9,4.0,-0.9,85,71,52,30.23,30.06,11,1,11,0.00
2013-1-2,21.4,17.7,14.7,17.0,13.2,11.0,90,83,75,30.13,30.04,11,1,11,0.00
2013-1-3,22.9,19.4,16.4,19.0,14.2,10.0,88,80,70,30.11,29.90,13,2,14,0.00
2013-1-4,34.2,23.2,13.7,21.1,15.2,9.0,84,72,54,30.17,29.90,14,2,14,0.01
2013-1-5,31.0,23.5,17.8,21.4,17.6,14.1,88,78,65,30.19,29.86,10,0,10,0.00
2013-1-6,25.9,22.8,15.1,23.4,17.5,10.9,90,80,69,30.22,29.86,14,2,14,0.00
2013-1-7,35.0,26.7,16.4,23.5,18.7,9.4,85,72,60,30.18,29.84,22,3,22,0.00
2013-1-8,38.9,29.2,18.2,28.9,22.5,14.9,91,77,54,30.10,29.77,15,1,15,0.02
2013-1-9,34.4,30.8,22.2,28.9,23.2,16.3,83,73,65,30.43,29.76,20,3,20,0.00
2013-1-10,42.7,29.6,17.3,30.3,19.9,13.4,90,70,33,30.48,29.92,13,1,13,0.00
2013-1-11,39.0,35.9,32.9,37.4,34.1,30.3,94,93,90,29.92,29.50,13,1,13,0.17
2013-1-12,43.9,31.7,17.7,41.8,26.2,10.8,95,80,70,29.97,29.42,22,3,22,0.00
2013-1-13,17.8,14.8,8.2,11.5,8.0,2.7,83,74,66,30.13,29.92,11,1,11,0.00
2013-1-14,19.5,10.1,4.7,7.0,3.1,-0.1,93,73,55,30.41,30.13,14,1,14,0.01
2013-1-15,25.7,15.4,3.4,13.8,6.7,-1.3,91,69,45,30.42,29.91,14,2,14,0.00
2013-1-16,27.0,21.4,11.9,22.5,14.6,5.1,87,75,60,30.11,29.60,20,4,20,0.00
2013-1-17,11.8,5.6,2.3,5.4,-1.7,-4.5,92,72,58,30.40,30.11,14,2,14,0.00
2013-1-18,16.6,9.3,0.6,13.1,4.8,-4.5,92,81,75,30.40,29.83,4,0,6,0.00
2013-1-19,35.3,21.8,5.1,30.8,18.0,-0.8,98,85,75,29.87,29.53,20,3,20,0.02
2013-1-20,7.9,3.1,-3.3,2.0,-3.1,-9.3,87,75,64,30.24,29.84,20,2,20,0.00
2013-1-21,-3.4,-8.4,-11.6,-9.2,-15.8,-20.6,77,70,58,30.26,30.11,12,2,12,0.00
2013-1-22,-0.6,-7.8,-15.3,-9.1,-14.6,-20.6,77,72,65,30.39,30.25,8,0,8,0.00
2013-1-23,8.2,-1.5,-10.3,2.4,-7.3,-15.6,87,76,68,30.57,30.14,12,2,12,0.00
2013-1-24,8.3,0.4,-15.3,1.6,-7.5,-20.9,84,69,55,30.75,30.42,9,0,9,0.00
2013-1-25,20.7,12.2,6.4,12.4,7.3,1.6,85,80,66,30.42,29.97,9,1,9,0.00
2013-1-26,22.4,16.8,9.9,12.7,10.2,6.1,87,75,62,30.42,30.19,14,1,14,0.00
2013-1-27,31.7,25.0,18.0,25.4,17.4,10.7,91,73,54,30.33,29.92,16,1,16,0.00
2013-1-28,35.5,30.5,27.7,30.0,27.5,25.4,92,88,80,29.95,29.84,12,1,12,0.01
2013-1-29,35.2,32.1,29.8,33.4,29.8,27.4,93,91,88,29.84,29.51,16,2,16,0.00
2013-1-30,30.2,18.5,9.8,27.5,14.9,5.4,91,85,81,29.61,29.43,20,5,20,0.00
2013-1-31,11.1,8.1,5.1,7.4,3.4,0.8,92,81,70,30.05,29.52,13,3,13,0.00
2013-2-1,6.5,-0.2,-6.1,2.7,-6.1,-11.5,84,76,64,30.23,30.05,7,1,7,0.00
2013-2-2,10.6,0.5,-11.8,2.1,-5.8,-16.7,85,75,65,30.22,30.03,6,0,6,0.00
2013-2-3,9.9,4.9,-2.3,3.5,-1.2,-7.0,82,76,62,30.07,29.93,11,1,11,0.00
2013-2-4,12.6,-0.6,-15.1,1.5,-7.6,-20.4,96,72,57,30.10,29.94,5,0,5,0.00
2013-2-5,20.3,11.1,-1.1,14.3,5.8,-6.0,86,79,65,30.12,29.76,14,1,14,0.00
2013-2-6,23.7,10.3,-6.0,16.0,5.1,-10.8,90,80,55,30.27,30.12,10,0,10,0.00
2013-2-7,23.2,19.3,16.6,20.6,16.5,12.0,90,88,82,30.30,30.18,8,1,8,0.00
2013-2-8,22.2,14.0,7.1,13.2,8.6,2.8,87,79,63,30.44,30.30,10,1,10,0.00
2013-2-9,28.2,17.5,9.1,18.9,13.0,5.5,98,83,64,30.43,30.14,14,2,14,0.00
2013-2-10,32.5,25.6,19.7,31.0,23.5,17.2,94,92,90,30.14,29.36,13,1,13,0.00
2013-2-11,33.1,27.3,20.3,31.5,25.0,17.2,94,91,87,29.89,29.28,9,2,9,0.00
2013-2-12,23.4,20.4,18.1,18.5,16.6,14.6,96,85,78,29.98,29.78,12,1,12,0.00
2013-2-13,37.4,27.3,18.3,28.3,22.5,15.1,90,83,65,29.78,29.66,7,0,7,0.01
2013-2-14,28.7,23.2,14.0,25.9,18.9,8.0,90,83,76,30.04,29.66,16,3,16,0.00
2013-2-15,17.5,10.3,-1.6,10.2,4.3,-6.2,85,76,62,30.23,30.03,9,1,9,0.00
2013-2-16,12.6,3.5,-9.6,3.5,-3.2,-15.0,88,74,56,30.27,30.18,12,1,12,0.00
2013-2-17,23.0,5.1,-18.0,6.4,-5.5,-23.4,92,63,41,30.28,30.01,13,1,13,0.00
2013-2-18,36.4,27.1,16.4,28.7,20.9,5.3,91,78,61,30.01,29.48,14,2,14,0.03
2013-2-19,27.0,13.1,7.8,24.4,8.0,1.6,91,80,69,30.15,29.46,19,6,19,0.00
2013-2-20,15.9,9.5,5.0,7.7,3.7,0.4,91,77,67,30.51,30.15,19,4,19,0.00
2013-2-21,25.7,16.0,4.8,17.2,11.4,0.5,90,82,66,30.57,30.30,11,2,11,0.00
2013-2-22,23.3,20.5,17.5,20.5,17.9,14.8,91,89,88,30.30,29.84,12,2,12,0.00
2013-2-23,32.5,22.8,13.2,28.5,19.9,10.3,91,88,83,29.92,29.80,7,1,7,0.00
2013-2-24,32.2,25.7,17.2,23.3,20.0,13.1,92,79,65,30.15,29.92,6,1,6,0.01
2013-2-25,34.4,26.5,13.5,26.2,20.7,9.9,92,79,66,30.18,30.12,9,0,9,0.00
2013-2-26,32.4,29.3,26.1,26.6,23.8,21.8,87,80,69,30.16,29.91,13,2,13,0.00
2013-2-27,31.0,28.8,27.0,26.0,24.6,23.1,92,84,79,29.93,29.82,18,5,18,0.00
2013-2-28,28.9,23.5,19.4,26.8,18.4,14.0,92,81,69,30.25,29.93,20,5,20,0.00
2013-3-1,24.8,18.1,8.6,14.3,10.3,3.7,81,72,50,30.39,30.25,13,3,13,0.00
2013-3-2,23.4,14.6,6.9,9.6,6.2,2.5,85,70,48,30.36,30.27,12,2,12,0.00
2013-3-3,25.2,13.9,3.5,5.4,1.1,-3.1,74,57,41,30.23,30.17,6,0,6,0.00
2013-3-4,31.0,12.5,-4.8,15.4,3.5,-9.8,85,69,46,30.26,30.18,10,1,10,0.00
2013-3-11,20.9,20.1,19.5,17.4,16.9,16.5,88,87,85,29.70,29.68,4,2,12,0.00
2013-3-12,24.0,18.7,15.9,18.5,14.6,11.8,96,84,76,30.04,29.69,11,2,11,0.00
2013-3-13,26.3,19.0,11.0,13.9,10.2,5.4,92,69,48,30.31,30.04,13,3,13,0.05
2013-3-14,37.9,18.9,0.2,23.3,8.2,-4.0,85,65,40,30.30,30.05,11,1,11,0.11
2013-3-15,26.4,20.2,12.3,15.0,9.5,6.2,84,64,51,30.02,29.96,9,2,13,0.00
2013-3-16,22.2,15.7,8.7,12.7,8.4,4.3,92,73,56,30.20,30.00,14,2,15,0.00
2013-3-17,24.9,11.3,-7.7,4.6,-0.8,-13.0,82,60,37,30.36,30.20,12,1,12,0.01
2013-3-18,31.7,27.0,22.5,25.0,22.4,18.7,89,83,63,29.71,29.50,10,1,10,0.00
2013-3-19,22.6,18.7,15.7,18.3,13.0,10.1,94,78,64,29.92,29.50,13,3,13,0.00
2013-3-20,19.7,14.7,8.0,11.7,8.4,2.8,92,76,64,30.07,29.91,15,3,15,0.00
2013-3-21,23.4,18.1,11.6,15.6,12.5,7.6,86,78,67,30.08,30.03,14,2,14,0.00
2013-3-22,30.4,21.5,6.5,22.5,16.2,2.2,90,80,69,30.15,30.07,12,1,12,0.00
2013-3-23,31.2,25.7,21.1,22.5,19.6,17.0,87,78,68,30.21,30.15,7,1,7,0.01
2013-3-24,29.7,25.6,19.4,22.4,19.5,15.4,86,77,70,30.18,29.98,13,2,13,0.00
2013-3-25,30.6,25.5,18.5,24.2,20.5,15.2,91,81,70,30.19,29.99,19,3,19,0.00
2013-3-26,35.2,29.7,24.1,28.5,24.0,19.3,89,79,61,30.27,30.18,15,2,15,0.00
2013-3-27,40.1,29.1,16.3,23.4,18.1,12.7,92,66,45,30.33,30.27,12,2,15,0.01
2013-3-28,45.2,31.2,15.3,22.5,17.2,10.0,83,58,35,30.36,30.28,9,1,9,0.00
2013-3-29,48.4,33.6,14.5,22.0,17.3,10.6,87,55,29,30.35,30.17,8,0,8,0.00
2013-3-30,37.6,35.4,33.9,35.5,29.2,19.2,93,80,51,30.18,29.76,12,2,12,0.43
2013-3-31,36.5,30.5,19.7,33.6,25.0,10.9,93,80,57,29.91,29.62,19,4,23,0.02
2013-4-1,24.5,20.4,16.7,15.2,10.7,6.5,83,66,48,30.14,29.91,16,3,16,0.00
2013-4-2,30.2,22.1,11.2,13.4,7.5,3.1,79,55,34,30.35,30.14,14,2,14,0.00
2013-4-3,40.7,25.3,5.2,14.3,7.8,-0.2,81,51,26,30.49,30.15,16,2,16,0.00
2013-4-4,43.4,36.9,29.3,30.0,22.6,14.4,70,56,42,30.15,29.95,18,3,22,0.01
2013-4-5,39.0,30.3,18.2,20.7,15.0,10.6,84,55,32,30.29,30.10,6,1,11,0.00
2013-4-6,38.7,32.6,27.4,33.4,28.1,20.5,92,84,63,30.17,29.55,11,1,11,0.37
2013-4-7,37.2,32.8,30.2,31.5,29.0,27.1,93,86,75,30.00,29.56,12,2,13,0.14
2013-4-8,31.5,31.5,31.5,27.5,27.5,27.5,85,85,85,30.05,29.85,0,0,0,0.00
2013-4-9,31.5,31.5,31.5,27.5,27.5,27.5,85,85,85,30.14,29.96,0,0,0,0.00
2013-4-10,39.4,34.5,28.8,27.5,21.3,15.1,85,61,39,30.21,30.05,12,2,12,0.00
2013-4-11,35.3,35.3,35.3,15.6,15.6,15.6,44,44,44,30.12,29.70,2,2,2,0.00
2013-4-12,35.3,35.3,35.3,15.6,15.6,15.6,44,44,44,29.71,29.59,2,2,2,0.00
2013-4-13,36.7,33.1,29.0,28.8,20.1,12.9,83,60,44,29.97,29.63,13,3,13,0.11
2013-4-14,39.7,31.5,29.0,28.0,24.0,21.4,89,74,53,30.04,29.75,11,3,11,0.04
2013-4-15,47.4,36.9,29.9,37.3,28.0,25.0,89,72,43,29.85,29.57,26,3,26,0.39
2013-4-16,42.4,38.7,34.4,31.0,26.2,22.7,79,61,50,30.39,29.84,11,2,11,0.00
2013-4-17,42.2,38.5,26.3,29.8,27.1,23.5,91,64,56,30.42,30.04,11,2,11,0.00
2013-4-18,39.2,36.5,32.8,34.7,31.5,22.3,93,83,65,30.05,29.28,10,2,10,0.13
2013-4-19,35.0,27.4,20.6,32.9,23.9,15.2,93,86,74,29.87,29.12,15,5,15,0.00
2013-4-20,32.7,25.0,14.3,17.2,14.6,10.9,87,66,51,30.45,29.87,11,3,11,0.01
2013-4-21,41.1,33.4,22.6,27.9,21.7,13.9,95,62,51,30.51,30.21,18,2,18,0.00
2013-4-22,40.1,36.7,34.8,38.2,32.5,26.0,94,85,70,30.24,30.09,7,0,7,0.07
2013-4-23,37.6,33.6,30.6,35.8,30.4,25.5,93,88,79,30.09,29.91,15,2,15,0.24
2013-4-24,47.1,38.0,18.4,26.1,24.1,15.6,93,60,38,30.01,29.88,16,2,16,0.02
2013-4-25,48.7,42.5,31.1,30.4,24.2,13.1,90,50,34,30.22,29.87,11,2,11,0.07
2013-4-26,61.9,50.6,34.4,38.4,31.0,12.0,89,48,39,30.22,30.06,13,2,13,0.02
2013-4-27,71.5,60.6,33.7,43.5,39.0,30.5,89,46,31,30.14,29.95,9,1,9,0.00
2013-4-28,70.3,63.8,47.3,44.7,41.5,24.8,80,45,35,29.95,29.71,16,3,16,0.00
2013-5-7,71.8,71.8,71.8,36.0,36.0,36.0,27,27,27,29.96,29.92,0,0,4,0.00
2013-5-8,78.8,71.5,52.7,43.3,38.7,36.0,66,31,24,29.99,29.90,9,0,9,0.00
2013-5-9,73.7,52.7,36.4,45.1,38.1,17.0,91,65,28,30.15,29.93,16,2,16,0.14
2013-5-10,58.9,46.2,31.3,34.3,28.6,21.3,91,57,25,30.14,29.90,10,1,10,0.00
2013-5-11,55.4,42.5,34.0,31.8,29.2,10.4,90,63,37,29.98,29.77,22,3,22,0.01
2013-5-12,39.8,35.4,29.9,29.5,23.3,18.0,82,63,42,30.15,29.98,21,5,21,0.00
2013-5-13,57.7,47.9,29.9,26.6,21.5,10.1,65,36,24,30.17,29.83,12,3,12,0.00
2013-5-14,68.5,58.9,40.0,45.2,36.7,24.1,77,45,30,29.83,29.44,12,3,12,0.00
2013-5-15,69.8,66.0,54.3,45.1,40.2,33.0,67,40,29,29.76,29.47,14,5,14,0.00
2013-5-16,70.7,54.0,0.0,39.3,30.8,0.0,64,33,22,30.05,29.76,11,1,11,0.00
2013-5-17,67.0,58.9,43.9,44.2,38.9,23.3,76,48,31,30.14,30.04,10,0,10,0.00
2013-5-18,68.7,61.3,49.2,53.3,47.9,43.3,91,63,50,30.11,29.92,10,1,10,0.01
2013-5-19,84.2,72.0,55.9,62.2,56.8,42.7,91,60,44,29.93,29.72,12,1,12,0.00
2013-5-20,82.5,73.9,60.0,62.5,57.2,46.0,84,58,36,29.73,29.56,16,1,16,0.00
2013-5-21,77.1,71.0,63.0,59.9,56.2,41.3,86,62,45,29.68,29.54,6,1,6,0.06
2013-5-22,65.2,54.1,45.1,57.8,49.5,43.8,95,85,77,29.99,29.67,10,2,10,0.01
2013-5-23,49.9,44.6,34.8,45.6,35.1,28.3,87,70,52,30.37,29.99,16,4,16,0.00
2013-5-24,66.5,52.6,32.3,36.8,32.2,29.2,93,48,31,30.47,30.27,5,1,5,0.16
2013-5-25,67.6,59.9,40.9,39.8,36.5,19.4,81,42,32,30.41,30.26,9,1,9,0.00
2013-5-26,69.7,61.0,41.8,38.5,34.2,26.2,80,38,24,30.35,30.17,11,2,11,0.00
2013-5-27,71.8,61.9,44.2,41.8,36.8,18.1,62,40,31,30.19,29.92,14,1,14,0.00
2013-5-28,61.6,57.6,51.8,51.1,46.0,39.5,79,67,44,29.92,29.73,5,0,5,0.00
2013-5-29,78.5,63.5,54.6,60.7,54.9,50.4,94,75,45,29.86,29.74,12,0,12,0.00
2013-5-30,84.8,74.5,62.7,67.1,62.8,51.3,93,68,49,29.78,29.63,12,2,12,0.01
2013-5-31,81.7,74.7,60.7,60.9,57.9,54.5,91,57,42,29.67,29.56,19,3,19,0.00
2013-6-1,75.3,68.2,53.5,58.7,56.3,51.6,94,67,53,29.75,29.55,7,1,7,0.00
2013-6-2,67.1,55.0,38.3,56.2,47.6,28.7,93,77,68,29.97,29.75,15,2,15,0.00
2013-6-10,75.8,72.8,71.9,62.3,61.4,58.6,70,67,60,29.80,29.75,3,0,3,0.00
2013-6-11,79.8,71.0,57.5,62.3,56.8,46.9,95,63,40,29.86,29.76,12,1,12,0.00
2013-6-12,82.3,72.5,52.5,56.4,50.4,46.4,93,47,31,29.87,29.72,10,0,10,0.00
2013-6-13,73.2,55.5,0.0,53.0,45.2,0.0,89,59,46,30.11,29.78,13,2,13,0.00
2013-6-14,77.0,66.0,45.6,52.3,47.2,36.8,94,54,25,30.16,29.95,5,0,5,0.00
2013-6-15,69.0,61.6,57.7,54.9,53.6,39.9,89,77,52,29.95,29.77,2,0,2,0.00
2013-6-16,76.8,67.6,57.4,57.6,52.3,47.3,94,61,37,29.85,29.75,11,2,11,0.00
2013-6-17,72.5,60.4,53.9,55.5,51.0,31.8,94,74,43,30.07,29.80,9,3,9,0.00
2013-6-18,72.3,61.1,40.3,48.4,43.9,32.9,95,56,32,30.15,30.06,7,1,7,0.00
2013-6-19,76.7,67.8,50.0,51.0,46.3,30.8,73,47,34,30.12,29.99,9,0,9,0.00
2013-6-20,76.4,72.5,59.0,63.1,57.6,50.2,80,60,47,30.08,30.01,9,0,9,0.00
2013-6-21,74.2,68.0,58.7,64.6,61.7,47.8,94,81,67,30.05,29.77,5,0,5,0.00
2013-6-22,74.2,66.9,59.3,64.7,62.1,55.8,96,85,71,30.08,29.91,9,0,9,0.00
2013-6-23,83.2,72.6,61.7,71.6,65.5,56.1,94,79,64,29.92,29.73,12,1,12,0.00
2013-6-24,85.2,77.4,64.6,67.3,65.2,56.1,93,67,45,29.89,29.75,6,1,7,0.00
2013-6-25,88.7,79.3,65.6,67.4,64.2,55.0,94,62,36,29.79,29.71,3,0,3,0.00
2013-6-26,86.8,80.5,66.1,70.9,68.9,54.4,94,68,58,29.74,29.63,9,1,9,0.00
2013-6-27,84.0,75.9,65.7,70.8,66.0,57.3,94,72,43,29.72,29.61,9,0,9,0.00
2013-6-28,71.3,67.1,60.7,64.1,61.3,58.1,93,82,74,29.71,29.58,10,1,10,0.00
2013-6-29,69.8,65.1,58.0,60.0,54.7,46.5,93,70,51,29.92,29.69,13,2,13,0.00
2013-6-30,77.9,68.6,50.1,50.3,47.3,42.0,84,48,33,30.08,29.92,11,1,11,0.00
2013-7-1,78.5,70.2,52.9,56.3,51.9,49.2,94,53,43,30.16,30.08,6,0,6,0.00
2013-7-2,79.8,68.9,48.3,51.2,47.3,33.5,89,48,28,30.16,30.04,5,0,5,0.00
2013-7-3,81.2,72.1,55.6,57.7,50.9,36.2,84,48,29,30.08,29.94,8,0,8,0.00
2013-7-4,84.3,75.3,61.6,61.5,58.1,54.8,89,56,38,29.97,29.89,9,1,9,0.00
2013-7-5,86.9,77.8,63.5,61.7,59.0,49.3,80,53,37,29.94,29.85,11,1,11,0.00
2013-7-6,91.1,80.6,68.5,65.1,61.2,58.0,77,53,35,29.89,29.82,9,1,12,0.00
2013-7-7,84.9,79.4,66.2,72.9,67.0,62.7,94,67,54,29.90,29.80,7,0,7,0.00
2013-7-8,82.3,75.0,64.2,71.6,67.8,58.6,95,79,60,29.95,29.84,5,0,7,0.00
2013-7-9,78.4,74.0,68.3,70.0,67.7,66.5,94,81,73,29.96,29.65,8,0,8,0.00
2013-7-10,73.0,67.3,59.6,67.5,58.1,50.4,89,73,55,29.98,29.70,13,2,13,0.00
2013-7-11,82.8,63.6,0.0,57.4,47.9,0.0,93,49,37,30.10,29.97,4,0,4,0.00
2013-7-12,84.1,75.6,59.0,63.4,58.8,41.4,81,57,45,30.08,29.98,10,1,11,0.00
2013-7-13,86.1,77.3,63.9,63.8,60.4,56.3,77,56,44,30.10,29.99,8,1,9,0.00
2013-7-14,88.6,79.2,64.4,65.5,62.5,48.8,79,57,41,30.17,30.10,10,1,10,0.00
2013-7-15,90.1,80.8,65.6,70.1,66.5,62.9,91,63,44,30.23,30.15,5,0,6,0.00
2013-7-16,94.1,83.8,71.7,73.5,70.5,61.3,91,65,48,30.18,30.07,11,1,11,0.00
2013-7-17,92.1,83.6,73.7,73.5,69.4,60.8,86,63,46,30.15,30.04,12,1,12,0.00
2013-7-18,91.8,84.0,82.2,74.3,70.2,68.1,71,63,50,30.04,29.64,16,1,16,0.00
2013-7-19,83.0,76.4,68.4,70.4,64.8,55.5,94,68,54,29.74,29.54,17,2,17,0.00
2013-7-20,72.8,66.3,56.8,57.7,51.5,43.9,85,60,41,30.02,29.74,9,2,9,0.00
2013-7-21,70.8,63.2,50.6,56.5,51.8,39.1,86,67,54,30.03,29.89,10,1,10,0.00
2013-7-22,82.3,71.3,55.9,66.4,60.8,47.0,92,70,55,29.89,29.57,13,1,13,0.00
2013-7-23,77.0,65.2,53.9,65.6,52.5,43.7,82,64,51,30.00,29.67,18,3,18,0.00
2013-7-24,74.2,64.4,50.4,55.8,51.1,36.5,92,63,42,30.06,29.97,5,0,5,0.00
2013-7-25,79.3,67.2,55.1,62.3,57.4,46.2,87,72,50,29.98,29.83,14,1,14,0.00
2013-7-26,65.8,54.1,0.0,61.6,50.6,0.0,95,74,78,29.93,29.78,13,1,13,0.00
2013-7-27,56.3,38.1,0.0,52.5,34.9,0.0,93,62,77,29.90,29.82,6,1,6,0.00
2013-7-28,53.1,52.1,50.0,50.5,48.6,45.0,95,88,83,29.99,29.80,15,3,15,0.00
2013-7-29,75.3,62.2,49.9,55.4,51.1,46.9,94,69,44,30.12,29.99,6,2,6,0.00
2013-7-30,71.0,67.4,57.6,61.3,57.8,45.0,91,72,63,30.14,30.03,6,1,6,0.00
2013-7-31,76.3,69.3,61.4,63.0,59.2,50.7,94,71,58,30.03,29.86,11,1,11,0.00
2013-8-1,72.5,66.6,54.8,56.0,53.7,49.1,89,64,48,29.88,29.82,9,1,9,0.00
2013-8-2,69.8,65.7,55.0,56.2,52.5,40.8,94,63,51,29.95,29.77,12,1,12,0.00
2013-8-3,68.7,64.0,53.2,54.5,52.2,50.0,89,66,55,30.15,29.95,14,2,14,0.00
2013-8-4,70.8,63.3,48.5,52.1,48.8,39.1,95,61,43,30.22,30.05,5,1,5,0.00
2013-8-5,64.5,61.4,53.7,62.0,55.0,48.5,94,81,56,30.05,29.81,4,0,4,0.00
2013-8-6,78.3,67.8,61.7,66.8,59.9,57.4,95,77,54,29.83,29.67,10,1,10,0.00
2013-8-7,70.1,67.1,62.6,58.4,54.3,45.1,82,64,49,29.98,29.64,13,1,13,0.00
2013-8-8,74.3,64.4,51.8,60.3,53.0,37.9,91,68,47,30.02,29.93,7,0,7,0.00
2013-8-9,67.3,64.1,59.0,58.1,52.8,46.9,90,67,51,30.05,29.90,10,1,10,0.00
2013-8-10,74.5,66.0,53.1,55.0,52.6,42.1,94,63,46,30.12,30.05,7,1,7,0.00
2013-8-11,74.8,68.2,55.9,57.9,55.1,42.0,88,64,44,30.07,29.97,5,1,5,0.00
2013-8-12,72.9,65.0,57.0,58.6,54.6,49.2,92,69,51,30.03,29.88,15,3,15,0.00
2013-8-13,60.6,58.3,56.6,50.7,48.8,44.1,76,71,58,30.17,30.02,13,4,13,0.00
2013-8-14,67.3,58.5,44.0,50.4,48.1,41.7,94,69,51,30.20,30.09,6,1,6,0.00
2013-8-15,75.3,60.7,45.8,57.4,49.3,42.5,90,69,44,30.11,30.06,6,1,7,0.00
2013-8-16,81.3,62.8,48.1,59.0,52.3,45.9,95,72,39,30.16,30.10,7,0,7,0.00
2013-8-17,82.8,67.2,55.1,60.4,55.6,52.7,93,70,38,30.20,30.10,10,0,10,0.00
2013-8-18,81.5,67.1,54.9,59.9,55.8,51.9,91,69,43,30.16,30.00,9,1,9,0.00
2013-8-19,81.7,69.5,58.6,66.1,60.7,54.5,87,75,58,30.01,29.89,12,1,12,0.00
2013-8-20,86.8,73.8,62.8,68.6,65.0,60.5,93,75,53,29.96,29.86,11,2,11,0.00
2013-8-21,89.2,73.0,62.1,73.2,67.0,60.4,94,82,56,29.97,29.79,11,1,11,0.43
2013-8-22,77.8,65.3,54.0,60.8,53.8,48.3,95,70,41,30.15,29.96,9,0,9,0.00
2013-8-23,79.5,63.4,48.2,59.1,53.8,46.5,95,74,46,30.21,30.10,6,0,6,0.01
2013-8-24,82.2,69.2,58.2,62.2,57.6,54.2,88,68,47,30.20,30.02,12,2,12,0.00
2013-8-25,93.3,79.1,67.6,74.2,69.7,62.4,92,74,53,30.03,29.88,13,2,13,0.03
2013-8-26,87.3,75.5,66.5,73.6,69.5,64.7,95,83,61,29.97,29.83,15,1,15,0.68
2013-8-27,77.7,71.8,67.8,73.0,69.0,65.9,95,91,82,29.93,29.79,5,0,5,0.79
2013-8-28,85.8,71.8,60.7,68.2,64.3,59.0,95,79,47,30.02,29.87,3,0,3,0.01
2013-8-29,87.0,71.3,62.8,69.8,65.5,60.5,95,83,53,30.04,29.81,11,1,11,0.11
2013-8-30,71.3,67.8,63.2,68.3,63.0,59.6,94,85,72,29.91,29.74,14,2,14,0.03
2013-8-31,83.2,67.8,56.3,65.6,60.7,54.3,95,80,49,29.90,29.74,5,0,5,0.00
2013-9-1,72.8,65.1,54.7,65.4,60.5,52.0,94,85,71,29.84,29.64,13,2,13,0.09
2013-9-2,57.2,53.0,48.5,51.9,48.9,45.9,92,86,75,30.02,29.84,13,2,13,0.00
2013-9-3,74.6,59.3,46.7,54.9,50.4,44.8,95,75,45,30.05,29.92,6,0,6,0.01
2013-9-4,66.8,59.1,46.5,57.2,49.8,43.7,90,73,48,30.18,29.93,8,1,8,0.00
2013-9-5,72.2,56.2,43.2,53.3,46.8,40.8,94,73,43,30.32,30.18,4,0,4,0.00
2013-9-6,80.5,65.0,51.4,69.9,60.4,48.8,93,85,65,30.19,29.87,7,1,7,0.17
2013-9-7,80.7,67.7,51.8,69.8,62.4,49.4,92,83,66,30.08,29.83,13,1,13,0.15
2013-9-8,71.8,57.7,46.8,56.0,51.0,45.2,95,80,51,30.16,29.98,7,0,7,0.01
2013-9-9,69.4,62.5,55.7,67.9,60.4,52.3,95,93,85,29.98,29.67,5,0,5,0.05
2013-9-10,80.7,69.8,64.0,69.6,65.3,61.4,95,86,61,29.87,29.69,9,1,9,0.02
2013-9-11,79.3,66.5,57.6,63.1,59.2,52.4,95,79,54,29.94,29.86,9,0,9,0.00
2013-9-12,59.0,53.9,47.4,53.4,48.6,43.4,93,82,66,30.19,29.93,14,1,14,0.00
2013-9-13,59.7,48.6,39.4,46.5,41.9,37.0,92,79,52,30.26,30.12,8,1,8,0.00
2013-9-14,68.5,54.7,42.7,53.1,46.6,39.9,93,76,51,30.13,29.95,13,1,13,0.05
2013-9-15,55.8,50.0,39.4,53.2,46.9,36.8,94,89,77,30.31,29.95,10,1,10,0.18
2013-9-16,61.7,46.4,36.0,45.5,39.0,34.0,95,78,46,30.47,30.31,4,0,4,0.00
2013-9-17,67.5,51.5,37.3,51.0,43.8,35.2,93,77,48,30.37,30.07,10,1,10,0.00
2013-9-18,63.4,58.9,53.7,61.0,56.5,51.1,95,92,87,30.08,29.84,7,0,7,0.00
2013-9-19,74.9,66.5,62.5,69.2,64.0,61.0,95,92,81,29.85,29.64,10,0,10,0.63
2013-9-20,71.0,60.3,48.4,62.5,56.9,45.8,95,89,57,29.76,29.60,9,1,9,0.11
2013-9-21,48.5,46.0,41.0,46.9,42.0,37.5,94,86,72,30.00,29.75,13,2,13,0.04
2013-9-22,55.2,45.2,38.3,42.4,39.3,35.7,95,81,58,30.12,30.00,5,0,5,0.00
2013-9-23,65.3,49.5,38.4,50.9,43.4,36.0,94,81,58,30.16,30.07,7,0,7,0.00
2013-9-24,69.2,53.4,41.3,54.4,47.9,39.1,95,83,58,30.11,30.00,5,0,5,0.00
2013-9-25,70.5,54.9,44.0,54.3,48.5,42.0,95,81,47,30.04,29.97,4,0,4,0.01
2013-9-26,72.5,55.9,43.8,54.0,49.0,41.9,95,80,49,30.09,30.02,6,0,7,0.01
2013-9-27,77.8,61.6,50.1,56.1,51.2,46.4,92,71,42,30.11,29.99,18,1,18,0.00
2013-9-28,75.0,61.3,50.7,60.3,52.7,45.1,92,75,56,30.02,29.68,21,2,21,0.16
2013-9-29,69.3,54.7,43.8,48.5,44.5,40.2,93,72,36,29.97,29.83,5,0,10,0.00
2013-9-30,70.7,58.1,47.9,47.5,45.5,43.2,86,65,39,29.93,29.70,15,2,17,0.00
2013-10-1,76.0,62.9,54.8,57.3,46.7,36.2,82,58,29,29.88,29.64,12,1,12,0.00
2013-10-2,72.2,57.4,46.9,46.7,39.5,33.5,73,54,26,30.05,29.88,4,0,4,0.00
2013-10-3,62.0,54.1,48.3,51.6,48.2,43.7,92,81,64,30.01,29.89,6,0,6,0.55
2013-10-4,58.3,53.4,50.6,50.7,49.3,47.6,92,86,74,30.11,29.96,6,0,6,0.04
2013-10-5,51.8,50.4,48.4,50.0,48.5,46.7,95,93,88,30.10,29.74,7,1,7,0.74
2013-10-6,57.4,53.7,47.0,56.2,51.2,45.4,96,91,79,29.74,29.62,7,0,7,0.22
2013-10-7,54.0,47.2,40.8,45.5,41.0,36.2,94,80,56,30.04,29.64,13,2,13,0.01
2013-10-8,70.8,55.2,40.2,47.9,42.7,35.7,87,65,40,30.11,29.98,22,2,22,0.00
2013-10-9,73.3,61.3,53.1,50.7,47.4,44.7,77,62,42,30.10,30.01,17,2,17,0.00
2013-10-10,73.0,57.1,43.9,47.7,44.9,41.8,94,68,35,30.13,30.04,11,1,11,0.00
2013-10-11,70.5,56.7,46.3,54.9,49.1,44.3,95,77,56,30.07,29.91,12,1,12,0.00
2013-10-12,67.0,57.0,48.3,57.5,47.4,38.4,86,71,48,30.00,29.78,21,1,21,0.00
2013-10-13,52.2,47.1,35.9,43.5,38.7,30.9,86,73,54,30.42,30.00,10,1,10,0.00
2013-10-14,54.9,44.0,32.8,40.0,34.1,29.2,92,70,46,30.48,30.23,7,0,7,0.00
2013-10-15,50.9,47.5,42.8,49.2,44.9,38.3,94,90,81,30.23,29.68,7,0,9,0.47
2013-10-16,50.5,43.0,36.2,48.8,40.0,33.6,94,89,78,29.89,29.68,11,2,11,0.06
2013-10-17,50.9,40.8,32.7,40.9,36.1,30.8,94,84,60,29.89,29.76,5,0,5,0.01
2013-10-18,43.3,40.2,32.9,40.7,37.7,30.5,94,91,87,29.88,29.76,7,1,7,0.13
2013-10-19,47.6,37.2,30.9,37.3,32.5,28.8,94,84,55,29.85,29.67,14,1,14,0.14
2013-10-20,42.5,36.3,33.5,35.8,33.5,31.4,94,90,73,29.81,29.67,7,0,7,0.17
2013-10-21,35.4,32.9,28.7,33.8,29.0,23.4,94,86,68,29.79,29.67,15,2,15,0.04
2013-10-22,38.0,33.8,31.1,32.7,30.2,27.0,93,86,73,29.98,29.71,13,2,13,0.05
2013-10-23,36.4,32.9,29.0,30.4,28.0,24.4,90,82,65,29.97,29.90,12,2,12,0.01
2013-10-24,37.2,32.8,30.5,32.9,29.6,27.6,92,88,73,30.23,29.96,8,1,8,0.01
2013-10-25,44.6,36.1,29.3,36.8,28.8,25.1,91,76,56,30.26,29.63,21,2,21,0.01
2013-10-26,44.1,37.9,34.8,37.5,30.8,25.7,87,76,64,30.02,29.62,16,3,21,0.02
2013-10-27,47.4,38.1,33.0,34.1,30.4,28.0,92,75,51,30.19,29.81,14,2,14,0.01
2013-10-28,35.9,30.7,23.1,28.6,21.6,18.2,84,69,51,30.53,30.19,12,1,12,0.00
2013-10-29,35.6,28.3,21.1,30.9,23.8,17.4,98,84,58,30.53,30.23,6,0,6,0.00
2013-10-30,47.4,39.1,33.0,46.0,37.3,30.9,95,93,92,30.24,29.75,7,0,7,0.11
2013-10-31,50.3,47.8,44.4,48.9,46.5,43.1,95,95,95,29.75,29.17,11,1,11,0.72
2013-11-1,44.4,39.7,36.7,43.1,37.7,34.6,95,92,90,29.76,29.18,9,2,9,0.09
2013-11-2,38.9,35.6,32.9,34.6,31.8,28.9,94,86,72,30.19,29.76,6,0,6,0.00
2013-11-3,42.2,36.9,31.7,36.0,31.4,28.3,88,81,68,30.31,30.18,19,2,19,0.00
2013-11-4,48.2,43.8,40.9,41.5,38.4,35.8,92,82,67,30.22,29.96,22,4,22,0.04
2013-11-5,48.7,40.3,32.9,39.2,32.6,30.1,92,75,51,30.24,29.99,11,1,11,0.22
2013-11-6,34.1,32.4,29.8,32.5,29.7,25.2,94,90,81,30.08,29.85,10,2,10,0.15
2013-11-7,33.2,30.3,28.4,29.5,26.4,25.1,92,85,79,30.18,30.08,6,1,9,0.01
2013-11-8,36.1,31.2,23.9,31.1,25.1,20.0,91,78,65,30.24,29.81,14,1,14,0.01
2013-11-9,36.4,34.9,33.2,34.8,32.2,31.0,94,90,83,29.93,29.63,17,2,17,0.27
2013-11-10,36.2,34.0,32.6,32.0,29.1,26.3,92,82,69,30.24,29.92,14,2,14,0.04
2013-11-11,32.8,23.5,20.6,30.4,18.6,13.9,92,81,68,30.58,30.01,15,4,15,0.00
2013-11-12,25.2,21.2,17.6,16.4,11.4,6.1,85,66,46,30.67,30.43,12,1,12,0.00
2013-11-13,45.6,32.9,18.5,31.2,22.0,9.1,72,64,54,30.44,29.84,20,3,20,0.03
2013-11-14,40.4,36.0,32.6,31.9,29.5,27.2,85,77,71,29.85,29.77,11,1,11,0.00
2013-11-15,50.4,38.9,31.0,38.3,32.9,28.5,93,80,63,29.87,29.80,7,1,11,0.00
2013-11-16,50.3,41.2,37.0,48.6,37.8,31.7,94,88,77,29.82,29.34,12,2,12,0.44
2013-11-17,50.5,43.8,33.8,48.8,40.9,28.3,94,89,80,29.41,29.17,17,3,17,0.06
2013-11-18,33.7,28.4,25.3,28.5,21.9,18.1,84,76,68,30.23,29.41,18,5,18,0.00
2013-11-19,34.2,27.3,17.6,24.0,19.1,14.0,89,72,56,30.37,30.19,13,2,13,0.00
2013-11-20,36.3,33.4,31.3,30.9,27.7,24.0,92,79,68,30.20,30.12,16,2,16,0.00
2013-11-21,35.1,32.2,25.4,32.9,30.1,22.2,93,92,88,30.37,30.11,14,1,14,0.10
2013-11-22,28.5,23.5,16.5,22.7,17.4,11.2,90,78,57,30.49,30.35,15,3,15,0.01
2013-11-23,16.3,10.8,8.7,12.0,5.3,1.4,92,78,64,30.69,30.41,15,4,15,0.00
2013-11-24,22.6,14.1,6.9,11.8,4.5,-1.9,83,66,44,30.67,30.01,18,2,18,0.00
2013-11-25,32.9,28.7,22.5,25.7,21.4,11.8,83,74,63,30.01,29.84,16,3,22,0.00
2013-11-26,28.4,16.7,8.5,23.0,11.0,3.6,86,78,61,30.24,29.91,12,2,12,0.00
2013-11-27,21.8,16.4,11.1,12.8,10.2,7.4,88,76,59,30.32,30.23,11,1,11,0.00
2013-11-28,23.2,15.5,0.9,17.3,11.1,-3.9,87,82,74,30.54,30.21,5,0,5,0.00
2013-11-29,24.5,14.2,-3.1,19.4,9.5,-7.6,90,81,72,30.66,30.36,13,1,13,0.00
2013-11-30,34.5,28.6,23.5,25.2,22.1,16.8,87,76,67,30.36,30.06,11,1,11,0.03
2013-12-1,31.7,29.0,27.6,26.7,25.2,22.8,90,85,78,30.19,30.01,3,0,3,0.00
2013-12-2,32.7,29.0,27.2,24.8,22.7,21.6,82,77,70,30.01,29.87,8,0,8,0.00
2013-12-7,5.3,-1.1,-6.9,-0.6,-7.2,-12.0,82,75,66,30.67,30.60,10,1,10,0.00
2013-12-8,7.9,0.2,-9.2,2.3,-5.0,-13.9,84,78,66,30.64,30.12,5,0,5,0.00
2013-12-9,11.7,3.3,-8.0,5.6,-1.9,-12.9,87,79,69,30.12,29.85,15,1,15,0.00
2013-12-10,9.9,-0.4,-9.8,1.8,-5.9,-14.5,92,77,68,30.19,29.90,12,1,12,0.00
2013-12-11,2.9,-3.3,-8.8,-6.0,-9.5,-13.9,79,74,64,30.46,30.19,11,1,11,0.00
2013-12-12,9.8,2.6,-8.8,4.9,-3.4,-14.1,81,76,64,30.41,30.17,10,1,10,0.00
2013-12-13,9.7,4.9,0.4,5.2,-1.8,-4.5,82,74,59,30.46,30.21,12,1,12,0.00
2013-12-14,15.5,8.9,0.8,8.7,4.1,-3.7,85,80,73,30.45,29.93,5,0,5,0.00
2013-12-15,11.6,5.4,-5.7,8.2,0.4,-10.5,89,79,69,30.16,29.90,11,2,11,0.00
2013-12-16,13.5,1.7,-14.4,7.7,-3.2,-19.5,92,79,66,30.20,29.95,11,1,11,0.00
2013-12-17,24.9,15.6,6.1,20.8,11.6,2.6,89,84,77,30.03,29.85,11,1,11,0.00
2013-12-18,17.0,10.9,3.7,7.3,4.6,-0.9,82,75,64,30.05,29.76,10,0,10,0.00
2013-12-19,22.0,15.1,3.2,18.7,10.7,-1.0,90,83,74,30.19,29.79,12,2,12,0.00
2013-12-20,20.7,15.2,5.3,16.3,11.6,1.1,88,85,81,30.13,29.92,3,0,4,0.00
2013-12-21,24.9,19.0,13.5,19.8,15.2,10.4,89,85,79,30.08,29.91,2,0,2,0.00
2013-12-22,22.8,19.7,15.6,19.2,15.7,12.4,88,84,77,30.17,29.96,12,1,12,0.00
2013-12-23,15.6,11.4,3.7,12.4,6.9,-0.5,92,82,72,30.46,30.17,7,1,7,0.00
2013-12-24,16.4,7.5,-3.1,7.9,1.3,-7.5,92,76,63,30.54,30.27,14,1,14,0.00
2013-12-25,17.0,11.9,8.2,9.8,7.3,3.9,92,81,71,30.27,30.06,12,1,12,0.00
2013-12-26,15.3,6.7,-7.6,6.7,1.3,-12.8,88,78,68,30.28,30.06,4,0,4,0.00
2013-12-27,30.7,19.0,-7.0,27.2,15.5,-11.3,89,86,81,30.29,29.91,14,1,14,0.00
2013-12-28,36.4,31.4,22.1,31.4,28.1,19.1,92,88,81,30.00,29.78,13,1,13,0.12
2013-12-29,21.9,4.6,-8.8,19.2,-0.5,-13.8,89,79,70,30.23,29.85,18,4,18,0.00
2013-12-30,1.4,-6.4,-15.2,-7.6,-12.7,-20.3,80,73,64,30.36,30.22,4,0,4,0.00
2013-12-31,-0.4,-7.3,-14.6,-7.5,-13.4,-19.8,83,74,63,30.50,30.20,10,1,10,0.00
2014-1-1,1.8,-6.3,-14.9,-6.9,-12.4,-20.0,92,74,65,30.62,30.49,4,0,4,0.00
2014-1-2,3.6,-9.4,-21.1,-4.4,-15.4,-26.5,81,74,67,30.55,30.49,8,0,8,0.00